Date String (YYYY-MM-DD hh:mm:ss) UTC,Instrument flags,Ambient pressure (hPa),Sample flow (lpm),Bypass flow (lpm),Sample temperature (°C),Ambient temperature (°C),ASC tube jacket temperature (°C),LED temperature (°C),Box temperature (°C),Sample RH (%),Span deviation,Mass concentration (μg/m³),Mass concentration (μg/m³),Mass concentration (μg/m³)
DateTimeUTC,F1_M11,P_M11,Q1_M11,Q2_M11,T1_M11,T2_M11,T3_M11,T4_M11,T5_M11,U1_M11,ZSPAN_M11,X0_M11,X2_M11,X1_M11
2021-11-11 12:00:00,,0827.8,5.00,0.00,22.5,22.5,00.0,31.5,24.4,12.6,0000.0,0011.87,0004.60,0003.91
2021-11-11 12:01:00,,0827.8,5.01,0.00,22.6,22.9,00.0,31.6,24.6,12.6,0000.0,0012.17,0004.66,0003.94
2021-11-11 12:02:00,,0827.8,5.01,0.00,22.7,22.8,00.0,31.6,24.6,12.5,0000.0,0011.97,0004.68,0003.97
2021-11-11 12:03:00,,0827.9,5.00,0.00,22.7,22.7,00.0,31.6,24.6,12.4,0000.0,0012.03,0004.74,0004.01
2021-11-11 12:04:00,,0827.9,5.00,0.00,22.7,22.5,00.0,31.6,24.6,12.4,0000.0,0012.34,0004.80,0004.04
2021-11-11 12:05:00,,0827.9,4.99,0.00,22.7,22.4,00.0,31.6,24.5,12.3,0000.0,0011.98,0004.79,0004.06
2021-11-11 12:06:00,,0827.9,5.00,0.00,22.7,22.3,00.0,31.6,24.5,12.3,0000.0,0011.78,0004.80,0004.07
2021-11-11 12:07:00,,0827.9,4.99,0.00,22.7,22.2,00.0,31.6,24.5,12.4,0000.0,0011.41,0004.81,0004.08
2021-11-11 12:08:00,,0827.7,4.99,0.00,22.7,22.1,00.0,31.6,24.4,12.4,0000.0,0012.32,0004.86,0004.09
2021-11-11 12:09:00,,0827.7,5.00,0.00,22.7,22.1,00.0,31.6,24.4,12.4,0000.0,0012.31,0004.86,0004.08
2021-11-11 12:10:00,,0827.7,5.00,0.00,22.7,22.0,00.0,31.6,24.4,12.3,0000.0,0012.59,0004.89,0004.07
2021-11-11 12:11:00,,0827.7,5.01,0.00,22.6,22.0,00.0,31.6,24.4,12.3,0000.0,0012.07,0004.92,0004.07
2021-11-11 12:12:00,,0827.7,4.99,0.00,22.6,22.0,00.0,31.6,24.4,12.3,0000.0,0011.75,0004.88,0004.07
2021-11-11 12:13:00,,0827.7,5.01,0.00,22.6,21.9,00.0,31.6,24.4,12.4,0000.0,0011.67,0004.89,0004.07
2021-11-11 12:14:00,,0827.7,5.00,0.00,22.6,21.9,00.0,31.6,24.4,12.4,0000.0,0011.53,0004.88,0004.05
2021-11-11 12:15:00,,0827.7,5.00,0.00,22.6,21.9,00.0,31.6,24.4,12.4,0000.0,0011.80,0004.83,0004.03
2021-11-11 12:16:00,,0827.7,5.00,0.00,22.6,21.9,00.0,31.6,24.4,12.4,0000.0,0012.61,0004.82,0004.01
2021-11-11 12:17:00,,0827.7,5.00,0.00,22.6,21.8,00.0,31.6,24.4,12.4,0000.0,0012.61,0004.79,0003.99
2021-11-11 12:18:00,,0827.7,5.01,0.00,22.6,21.8,00.0,31.6,24.4,12.5,0000.0,0012.44,0004.76,0003.96
2021-11-11 12:19:00,,0827.7,5.00,0.00,22.6,21.8,00.0,31.6,24.3,12.5,0000.0,0011.06,0004.65,0003.92
2021-11-11 12:20:00,,0827.8,5.00,0.00,22.6,21.8,00.0,31.6,24.4,12.5,0000.0,0011.18,0004.62,0003.90
2021-11-11 12:21:00,,0827.9,5.00,0.00,22.6,21.7,00.0,31.6,24.3,12.4,0000.0,0011.39,0004.57,0003.87
2021-11-11 12:22:00,,0827.8,5.00,0.00,22.6,21.7,00.0,31.6,24.3,12.3,0000.0,0011.27,0004.51,0003.84
2021-11-11 12:23:00,,0827.8,5.01,0.00,22.6,21.7,00.0,31.6,24.2,12.4,0000.0,0011.52,0004.51,0003.81
2021-11-11 12:24:00,,0827.7,4.99,0.00,22.5,21.7,00.0,31.6,24.2,12.5,0000.0,0011.84,0004.51,0003.78
2021-11-11 12:25:00,,0827.7,5.01,0.00,22.5,21.7,00.0,31.6,24.3,12.6,0000.0,0011.49,0004.46,0003.76
2021-11-11 12:26:00,,0827.7,5.00,0.00,22.5,21.7,00.0,31.6,24.3,12.7,0000.0,0010.86,0004.44,0003.74
2021-11-11 12:27:00,,0827.7,5.00,0.00,22.5,21.7,00.0,31.6,24.2,12.6,0000.0,0009.98,0004.42,0003.73
2021-11-11 12:28:00,,0827.6,4.99,0.00,22.5,21.7,00.0,31.6,24.2,12.5,0000.0,0010.18,0004.44,0003.72
2021-11-11 12:29:00,,0827.5,5.00,0.00,22.5,21.7,00.0,31.6,24.2,12.7,0000.0,0010.77,0004.43,0003.71
2021-11-11 12:30:00,,0827.5,5.01,0.00,22.5,21.6,00.0,31.6,24.2,12.8,0000.0,0010.97,0004.42,0003.70
2021-11-11 12:31:00,,0827.5,5.01,0.00,22.5,21.6,00.0,31.5,24.2,12.9,0000.0,0010.53,0004.35,0003.67
2021-11-11 12:32:00,,0827.6,4.99,0.00,22.5,21.6,00.0,31.5,24.2,12.9,0000.0,0009.73,0004.27,0003.65
2021-11-11 12:33:00,,0827.7,5.00,0.00,22.5,21.6,00.0,31.5,24.2,12.8,0000.0,0009.60,0004.23,0003.61
2021-11-11 12:34:00,,0827.7,4.99,0.00,22.5,21.6,00.0,31.5,24.2,12.7,0000.0,0009.28,0004.17,0003.59
2021-11-11 12:35:00,,0827.7,5.00,0.00,22.4,21.6,00.0,31.5,24.1,12.8,0000.0,0008.94,0004.14,0003.57
2021-11-11 12:36:00,,0827.7,5.01,0.00,22.4,21.6,00.0,31.5,24.1,12.9,0000.0,0008.65,0004.10,0003.54
2021-11-11 12:37:00,,0827.8,5.00,0.00,22.5,22.0,00.0,31.5,24.3,12.9,0000.0,0008.90,0004.07,0003.52
2021-11-11 12:38:00,,0827.8,5.00,0.00,22.6,22.7,00.0,31.6,24.5,12.8,0000.0,0009.07,0004.05,0003.50
2021-11-11 12:39:00,,0827.7,4.99,0.00,22.7,23.1,00.0,31.6,24.6,12.7,0000.0,0008.63,0003.97,0003.47
2021-11-11 12:40:00,,0827.7,5.01,0.00,22.7,22.9,00.0,31.6,24.7,12.7,0000.0,0007.94,0003.92,0003.45
2021-11-11 12:41:00,,0827.6,5.01,0.00,22.7,22.7,00.0,31.6,24.6,12.7,0000.0,0007.91,0003.89,0003.44
2021-11-11 12:42:00,,0827.6,5.00,0.00,22.7,22.6,00.0,31.6,24.6,12.7,0000.0,0008.33,0003.89,0003.43
2021-11-11 12:43:00,,0827.7,4.99,0.00,22.7,22.4,00.0,31.6,24.6,12.8,0000.0,0008.34,0003.89,0003.42
2021-11-11 12:44:00,,0827.7,5.01,0.00,22.7,22.3,00.0,31.6,24.5,12.8,0000.0,0008.42,0003.90,0003.42
2021-11-11 12:45:00,,0827.6,5.00,0.00,22.7,22.2,00.0,31.6,24.5,12.8,0000.0,0008.45,0003.93,0003.42
2021-11-11 12:46:00,,0827.5,4.99,0.00,22.7,22.1,00.0,31.6,24.4,12.8,0000.0,0008.42,0003.90,0003.41
2021-11-11 12:47:00,,0827.5,5.00,0.00,22.7,22.1,00.0,31.6,24.4,12.8,0000.0,0008.47,0003.92,0003.42
2021-11-11 12:48:00,,0827.6,5.00,0.00,22.6,22.0,00.0,31.6,24.4,12.8,0000.0,0008.30,0003.96,0003.43
2021-11-11 12:49:00,,0827.5,4.99,0.00,22.6,22.0,00.0,31.6,24.4,12.9,0000.0,0008.57,0003.95,0003.42
2021-11-11 12:50:00,,0827.6,5.01,0.00,22.6,21.9,00.0,31.6,24.4,12.8,0000.0,0008.58,0003.93,0003.40
2021-11-11 12:51:00,,0827.7,5.00,0.00,22.6,21.9,00.0,31.6,24.4,12.6,0000.0,0008.72,0003.96,0003.40
2021-11-11 12:52:00,,0827.7,5.00,0.00,22.6,21.9,00.0,31.6,24.3,12.6,0000.0,0008.52,0003.97,0003.40
2021-11-11 12:53:00,,0827.7,5.00,0.00,22.6,21.9,00.0,31.6,24.3,12.8,0000.0,0008.33,0003.95,0003.40
2021-11-11 12:54:00,,0827.7,5.00,0.00,22.6,21.8,00.0,31.6,24.3,12.7,0000.0,0008.57,0003.94,0003.40
2021-11-11 12:55:00,,0827.7,5.01,0.00,22.6,21.8,00.0,31.6,24.3,12.7,0000.0,0008.58,0003.90,0003.39
2021-11-11 12:56:00,,0827.7,4.99,0.00,22.6,21.8,00.0,31.6,24.3,12.7,0000.0,0008.54,0003.86,0003.38
2021-11-11 12:57:00,,0827.7,5.02,0.00,22.5,21.8,00.0,31.6,24.3,12.8,0000.0,0008.39,0003.84,0003.36
2021-11-11 12:58:00,,0827.7,4.99,0.00,22.5,21.7,00.0,31.6,24.2,12.9,0000.0,0008.34,0003.85,0003.36
2021-11-11 12:59:00,,0827.8,4.99,0.00,22.5,21.7,00.0,31.6,24.2,13.0,0000.0,0008.17,0003.82,0003.35
